Terminal Aerodrome Forecast
Issued by NWS

Home | Current Version | Previous Version | Graphics & Text | Print | Product List | Glossary On
Versions: 1 2 3 4 5 6 7 8 9 10 11 12 13 14 15 16 17 18
000
FTUS43 KBIS 021240 AAB
TAFMOT
TAF AMD
KMOT 021240Z 0213/0312 13005KT 0SM FG VV002
      TEMPO 0213/0214 2SM BR
     FM021400 16004KT P6SM SKC
     FM021800 15012G20KT P6SM SKC
     FM030100 16007KT P6SM SKC=

USA.gov is the U.S. government's official web portal to all federal, state and local government web resources and services.